sat.trackr.live / text

‹ back to catalog

STARLINK-30432

NORAD 57864 · 2023-144A

PAYLOAD ACTIVE UNKNOWN

§ Identity

Operator
Country
US
Launch date
2023-09-16
Launch site
AFETR
Launch vehicle
Mass (kg)
RCS (m²)

Purposes: comms

External: N2YO · Heavens-Above · Gunter

§ Orbital elements

Epoch: 2026-09-20T08:59:00.639744Z

Period
94.27 min
Inclination
43.0004°
Eccentricity
0.0001021
Mean motion
15.27574545 rev/d
Perigee alt
482.4 km
Apogee alt
483.8 km
Semi-major
6,861.2 km
B*
1.1957e-5
RAAN
265.5859°
Arg perigee
278.6536°
Mean anomaly
81.4200°
Rev number
16,737

§ Raw data

STARLINK-304321 57864U 23144A   26263.37431296  .00000067  00000+0  11957-4 0  99972 57864  43.0004 265.5859 0001021 278.6536  81.4200 15.27574545167378

JSON: /api/v1/satellites/57864 · /tle

For live sub-satellite position, see the globe view (requires WebGL).

§ Visibility from observer

Set your observer location to see the next 7 days of passes ≥ 10°. The values pass through the URL so the page stays shareable.

No JS? Fill the form by hand. The geolocation button needs JavaScript.